Weather History for LTCI - January, 2013

Change the Weather History Date:

Tuesday, January 8, 2013

  Actual Average Record
Temperature  
Mean Temperature 31 °F -  
Max Temperature 34 °F 35 °F 42 °F (1997)
Min Temperature 28 °F 17 °F 6 °F (2008)
Degree Days  
Heating Degree Days 34    
Moisture  
Dew Point 24 °F    
Average Humidity 73    
Maximum Humidity 93    
Minimum Humidity 36    
Precipitation  
Precipitation 0.01 in 0.05 in - ()
Sea Level Pressure  
Sea Level Pressure 29.61 in    
Wind  
Wind Speed 9 mph ()    
Max Wind Speed 23 mph    
Max Gust Speed -    
Visibility 4.3 miles    
Events Snow    
Averages and records for this station are not official NWS values.
T = Trace of Precipitation, MM = Missing Value Source: Averaged Metar Reports

Daily Weather History Graph

Daily Weather History Graph

Search for Another Location

Airport or City:

Trip Planner

Search our weather history database for the weather conditions in past years. The results will help you decide how hot, cold, wet, or windy it might be!

Date:

Astronomy

Jan. 08, 2013 Rise Set
Actual Time 6:24 AM EET 4:02 PM EET
Civil Twilight 5:54 AM EET 4:32 PM EET
Nautical Twilight 5:21 AM EET 5:05 PM EET
Astronomical Twilight 4:49 AM EET 5:37 PM EET
Moon 2:32 AM EET (1/8) 12:44 PM EET (1/8)
Length of Visible Light 10h 37m
Length of Day
9h 38m
Waning Crescent, 16% of the Moon is Illuminated
Jan 8
Waning Crescent
Jan 11
New
Jan 19
First Quarter
Jan 27
Full
Feb 3
Last Quarter

Hourly Weather History & Observations

Time (EET) Temp. Windchill Dew Point Humidity Pressure Visibility Wind Dir Wind Speed Gust Speed Precip Events Conditions
12:50 AM 33.8 °F 25.8 °F 26.6 °F 75% 29.50 in 3.7 mi SSE 10.4 mph - N/A   Mostly Cloudy
1:50 AM 33.8 °F 27.0 °F 30.2 °F 87% 29.53 in 3.7 mi South 8.1 mph - N/A Snow Light Snow
2:00 AM 34 °F - 29 °F 75%  in 4 mi South 8.1 mph - - Snow Light Snow
2:50 AM 32.0 °F 27.5 °F 24.8 °F 75% 29.53 in 6.2 mi South 4.6 mph - N/A   Mostly Cloudy
3:50 AM 32.0 °F 27.5 °F 28.4 °F 87% 29.53 in 6.2 mi SSW 4.6 mph - N/A   Mostly Cloudy
4:50 AM 30.2 °F 25.4 °F 26.6 °F 86% 29.56 in 6.2 mi SSE 4.6 mph - N/A   Mostly Cloudy
5:50 AM 30.2 °F 21.9 °F 28.4 °F 93% 29.59 in 3.7 mi SW 9.2 mph - N/A Snow Light Snow
6:50 AM 30.2 °F 26.7 °F 26.6 °F 86% 29.56 in 3.7 mi NNE 3.5 mph - N/A   Mostly Cloudy
7:50 AM 32.0 °F 19.2 °F 24.8 °F 75% 29.59 in 3.7 mi South 23.0 mph - N/A   Mostly Cloudy
8:00 AM 31 °F - 24 °F 68%  in 4 mi South 23.0 mph - -   Mist
8:50 AM 32.0 °F 22.5 °F 26.6 °F 80% 29.62 in 4.3 mi WSW 12.7 mph - N/A   Mostly Cloudy
9:50 AM 32.0 °F 21.2 °F 24.8 °F 75% 29.65 in 4.3 mi WSW 16.1 mph - N/A   Mostly Cloudy
10:50 AM 32.0 °F 21.6 °F 24.8 °F 75% 29.62 in 4.3 mi WSW 15.0 mph - N/A   Mostly Cloudy
11:50 AM 32.0 °F 21.6 °F 26.6 °F 80% 29.62 in 4.3 mi West 15.0 mph - N/A Snow Light Snow
12:50 PM 33.8 °F 24.3 °F 24.8 °F 70% 29.62 in 4.3 mi SW 13.8 mph - N/A   Mostly Cloudy
1:50 PM 30.2 °F 23.4 °F 26.6 °F 86% 29.62 in 4.3 mi WNW 6.9 mph - N/A   Mostly Cloudy
2:00 PM 31 °F - 27 °F 77%  in 4 mi WNW 5.8 mph - -   Mist
2:50 PM 30.2 °F 23.4 °F 26.6 °F 86% 29.65 in 3.7 mi Variable 6.9 mph - N/A Snow Light Snow
3:50 PM 30.2 °F 23.4 °F 26.6 °F 86% 29.68 in 4.3 mi WSW 6.9 mph - N/A   Mostly Cloudy
4:50 PM 30.2 °F 20.2 °F 17.6 °F 60% 29.68 in 4.3 mi South 12.7 mph - N/A   Mostly Cloudy
5:50 PM 28.4 °F 21.2 °F 15.8 °F 59% 29.71 in 4.3 mi SSW 6.9 mph - N/A   Mostly Cloudy
6:50 PM 30.2 °F 18.9 °F 15.8 °F 55% 29.71 in 4.3 mi South 16.1 mph - N/A   Mostly Cloudy
7:20 PM 32.0 °F 20.5 °F 15.8 °F 51% 29.68 in 4.3 mi SSW 18.4 mph - N/A   Mostly Cloudy
7:50 PM 30.2 °F 23.4 °F 15.8 °F 55% 29.68 in 4.3 mi Variable 6.9 mph - N/A   Mostly Cloudy
8:00 PM 30 °F - 13 °F 36%  in 4 mi SE 6.9 mph - -   Partly Cloudy
8:50 PM 28.4 °F 23.3 °F 17.6 °F 64% 29.65 in 4.3 mi ENE 4.6 mph - N/A   Mostly Cloudy
9:50 PM 30.2 °F 21.9 °F 19.4 °F 64% 29.59 in 4.3 mi SE 9.2 mph - N/A   Mostly Cloudy
10:50 PM 30.2 °F 25.4 °F 23.0 °F 75% 29.53 in 4.3 mi SSE 4.6 mph - N/A   Mostly Cloudy
11:50 PM 30.2 °F 20.8 °F 26.6 °F 86% 29.50 in 2.5 mi SSE 11.5 mph - N/A Snow Light Snow